STARLINK-31876 (59938 NORAD) Tracking and Keplerian Element Data

This shows tracking and keplerian element data for the satellite.

Feedback or suggestion? Click here.




ElementValue
Catalog59938
NameSTARLINK-31876
Epoch Orbit3838
Epoch Day35.13738526
Epoch Year2025
RAAN68.1601
Inclination43.0043
Eccentricity0.0001596
Argument of Perigee261.4389
Mean Anonmoly98.6287
Mean Motion15.40720414
Decay Rate-5.522E-05
L11 59938U 24106S 25035.13738526 -.00005522 00000+0 -12494-3 0 9995
L22 59938 43.0043 68.1601 0001596 261.4389 98.6287 15.40720414 38386



Live tracking and technical data element details for STARLINK-31876 (NORAD 59938). STARLINK-31876 can be tracked NOW for your location showing map with azimuth and elevation plus other details from your city location.







IsCatalogInMostPopularTable: catalog: 59938, numindb: 83
Update: records affected: 1



GetName: 59938 STARLINK-31876

Hit Count: updated at: Mon, 23 Jun 2025 12:53:58 GMT